Orbital Elements at Epoch 2459000.5 (2020-May-31.0) TDB
Reference: JPL 12 (heliocentric ecliptic J2000)
Element | Value | Uncertainty (1-sigma) | Units |
e | .1348062118867878 | 5.8886e-08 | |
a | 2.53956001624024 | 2.8876e-08 | au |
q | 2.197211550591744 | 1.4612e-07 | au |
i | 16.40943970010848 | 2.0449e-05 | deg |
node | 347.7610049718097 | 2.1259e-05 | deg |
peri | 81.00842713740792 | 0.0002105 | deg |
M | 352.1418641954695 | 0.00019316 | deg |
tp | 2459032.766597919390 (2020-Jul-02.26659792) | 0.00079334 | TDB |
period | 1478.210041150374 4.05 | 2.5212e-05 6.903e-08 | d yr |
n | .2435377855503136 | 4.1537e-09 | deg/d |
Q | 2.881908481888736 | 3.2769e-08 | au |
|
| | Orbit Determination Parameters
Additional Information
|